Вернуться в каталог

STARLINK-1704

АктивенСвязьVLEO
NORAD 47625·PAYLOAD·🇺🇸 United States

Запущен Feb 16, 2021 с Cape Canaveral Space Force Station

Loading…

Ближайшие Пролёты (ближайшие 24 часа)

TLE

СвежийSource: CelesTrak SupGP

Эпоха: Sep 15, 2026, 02:19 UTC

1 47625C 21012F   26258.09701389  .00177980  00000+0  74583-3 0  2589
2 47625  53.0360 217.0780 0007165  87.5773 126.1960 15.84726705    15

Отслеживайте STARLINK-1704 в реальном времени с AllMySat

Download on the App Store